GW2939 Weather Reports


time (UTC)temp
C
wind
direction
speed
KPH
gust
KPH
rain 1hr
cm
rain 24hr
cm
rain mn
cm
humidity
%
barometer
mb
20260505040052 7 0 0.0 0.0 0.05 0.38 0.38 86 1012.7
20260505035523 7 0 0.0 0.0 0.08 0.38 0.38 86 1012.6
20260505035023 7 0 0.0 0.0 0.15 0.38 0.38 86 1012.5
20260505034541 8 0 0.0 0.0 0.20 0.38 0.38 86 1012.6
20260505034023 8 0 0.0 0.0 0.28 0.38 0.38 86 1012.6
20260505033523 8 0 0.0 0.0 0.30 0.38 0.38 86 1012.6
20260505033040 8 0 0.0 0.0 0.33 0.38 0.38 86 1012.8
20260505032525 8 0 0.0 0.0 0.33 0.38 0.38 86 1012.7
20260505032024 8 0 0.0 0.0 0.33 0.36 0.36 86 1012.8
20260505031547 8 0 0.0 0.0 0.33 0.36 0.36 86 1012.7
20260505031025 8 0 0.0 0.0 0.33 0.36 0.36 86 1012.7
20260505030524 8 0 0.0 0.0 0.36 0.36 0.36 85 1012.6
20260505030043 8 0 0.0 0.0 0.33 0.33 0.33 84 1012.7
20260505025526 9 0 0.0 3.2 0.30 0.30 0.30 83 1012.6
20260505025026 9 0 0.0 3.2 0.23 0.23 0.23 83 1012.4
20260505024539 10 0 0.0 3.2 0.18 0.18 0.18 83 1012.3
20260505024023 10 0 0.0 1.6 0.10 0.10 0.10 82 1012.2
20260505023523 10 0 0.0 1.6 0.08 0.08 0.08 81 1012.1
20260505023034 10 0 0.0 0.0 0.05 0.05 0.05 80 1012.0
20260505022523 10 0 0.0 0.0 0.05 0.05 0.05 79 1011.8
20260505022027 10 0 0.0 0.0 0.03 0.03 0.03 78 1011.6
20260505021540 10 0 0.0 0.0 0.03 0.03 0.03 77 1011.5
20260505021025 10 0 0.0 0.0 0.03 0.03 0.03 76 1011.5
20260505020523 10 0 0.0 0.0 0.00 0.00 0.00 74 1011.5
20260505020042 10 0 0.0 0.0 0.00 0.00 0.00 73 1011.5
20260505015524 10 0 0.0 0.0 0.00 0.00 0.00 71 1011.6
20260505015023 11 0 0.0 0.0 0.00 0.00 0.00 71 1011.6
20260505014542 11 0 0.0 0.0 0.00 0.00 0.00 70 1011.6
20260505014023 11 0 0.0 0.0 0.00 0.00 0.00 68 1011.4
20260505013523 11 0 0.0 3.2 0.00 0.00 0.00 67 1011.3
20260505013035 12 0 0.0 3.2 0.00 0.00 0.00 62 1011.2
20260505012523 12 0 0.0 9.7 0.00 0.00 0.00 62 1011.2
20260505012023 13 1 3.2 9.7 0.00 0.00 0.00 57 1011.3
20260505011538 13 0 0.0 4.8 0.00 0.00 0.00 50 1011.1
20260505011023 13 16 0.0 4.8 0.00 0.00 0.00 50 1011.0
20260505010523 13 0 0.0 0.0 0.00 0.00 0.00 50 1011.0
20260505010048 13 0 0.0 3.2 0.00 0.00 0.00 50 1011.0
20260505005523 14 0 0.0 3.2 0.00 0.00 0.00 50 1010.8
20260505005024 14 0 0.0 3.2 0.00 0.00 0.00 50 1010.7
20260505004539 14 0 0.0 3.2 0.00 0.00 0.00 50 1010.6
20260505004023 14 0 0.0 3.2 0.00 0.00 0.00 50 1010.7
20260505003524 14 0 0.0 3.2 0.00 0.00 0.00 50 1010.7
20260505003039 14 0 0.0 3.2 0.00 0.00 0.00 51 1010.8
20260505002523 14 0 0.0 3.2 0.00 0.00 0.00 51 1010.7
20260505002023 15 20 0.0 3.2 0.00 0.00 0.00 50 1010.8
20260505001538 15 0 0.0 3.2 0.00 0.00 0.00 49 1010.6
20260505001023 15 0 0.0 4.8 0.00 0.00 0.00 49 1010.6
20260505000523 15 0 0.0 4.8 0.00 0.00 0.00 48 1010.5
20260505000047 15 0 0.0 3.2 0.00 0.00 0.00 47 1010.5
20260504235524 15 0 0.0 3.2 0.00 0.00 0.00 47 1010.4
20260504235024 14 0 0.0 3.2 0.00 0.00 0.00 46 1010.6
20260504234536 14 0 0.0 3.2 0.00 0.00 0.00 47 1010.6
20260504234024 14 0 0.0 3.2 0.00 0.00 0.00 48 1010.4
20260504233524 14 0 0.0 3.2 0.00 0.00 0.00 49 1010.5
20260504233037 14 0 0.0 3.2 0.00 0.00 0.00 49 1010.5
20260504232524 14 0 0.0 3.2 0.00 0.00 0.00 48 1010.4
20260504232025 14 0 0.0 0.0 0.00 0.00 0.00 49 1010.4
20260504231538 14 0 0.0 0.0 0.00 0.00 0.00 49 1010.2
20260504231024 14 0 0.0 0.0 0.00 0.00 0.00 49 1010.3
20260504230523 14 0 0.0 0.0 0.00 0.00 0.00 50 1010.3
20260504230040 14 0 0.0 3.2 0.00 0.00 0.00 53 1010.4
20260504225526 14 0 0.0 3.2 0.00 0.00 0.00 54 1010.6
20260504225023 14 0 0.0 1.6 0.00 0.00 0.00 53 1010.7
20260504224538 14 0 0.0 3.2 0.00 0.00 0.00 56 1010.7
20260504224023 15 0 0.0 3.2 0.00 0.00 0.00 50 1010.8
20260504223524 15 0 0.0 4.8 0.00 0.00 0.00 48 1010.8
20260504223041 15 39 0.0 4.8 0.00 0.00 0.00 44 1010.8
20260504222523 15 0 0.0 3.2 0.00 0.00 0.00 41 1010.9
20260504222023 16 0 0.0 1.6 0.00 0.00 0.00 41 1010.8
20260504221542 16 0 0.0 1.6 0.00 0.00 0.00 41 1010.6
20260504221023 16 0 0.0 1.6 0.00 0.00 0.00 41 1010.4
20260504220524 16 0 0.0 3.2 0.00 0.00 0.00 40 1010.1
20260504220047 16 0 0.0 8.0 0.00 0.00 0.00 40 1009.8
20260504215523 16 0 0.0 8.0 0.00 0.00 0.00 39 1009.6
20260504215026 16 2 0.0 9.7 0.00 0.00 0.00 40 1009.5
20260504214539 16 0 0.0 14.5 0.00 0.00 0.00 39 1009.4
20260504214023 16 357 3.2 14.5 0.00 0.00 0.00 39 1009.5
20260504213524 16 353 1.6 14.5 0.00 0.00 0.00 38 1009.5
20260504213045 17 351 4.8 14.5 0.00 0.00 0.00 37 1009.4
20260504212523 17 313 3.2 9.7 0.00 0.00 0.00 35 1009.5
20260504212024 17 70 1.6 11.3 0.00 0.00 0.00 35 1009.4
20260504211539 17 354 1.6 11.3 0.00 0.00 0.00 34 1009.5
20260504211023 17 66 4.8 9.7 0.00 0.00 0.00 34 1009.7
20260504210523 18 349 3.2 11.3 0.00 0.00 0.00 32 1009.5
20260504210041 19 0 3.2 11.3 0.00 0.00 0.00 31 1009.4
20260504205524 21 2 3.2 11.3 0.00 0.00 0.00 28 1009.4
20260504205023 22 355 3.2 11.3 0.00 0.00 0.00 25 1009.4
20260504204541 22 91 3.2 11.3 0.00 0.00 0.00 24 1008.6
20260504204024 21 101 3.2 12.9 0.00 0.00 0.00 26 1008.4
20260504203524 21 91 4.8 16.1 0.00 0.00 0.00 27 1008.4
20260504203038 20 87 3.2 12.9 0.00 0.00 0.00 28 1008.5
20260504202543 20 87 1.6 14.5 0.00 0.00 0.00 29 1008.6
20260504202024 19 103 3.2 16.1 0.00 0.00 0.00 28 1008.7
20260504201534 19 85 4.8 16.1 0.00 0.00 0.00 29 1008.8
20260504201023 19 159 1.6 16.1 0.00 0.00 0.00 30 1008.8
20260504200523 19 77 3.2 9.7 0.00 0.00 0.00 29 1008.9
20260504200041 20 79 0.0 11.3 0.00 0.00 0.00 27 1008.9
20260504195524 20 0 0.0 11.3 0.00 0.00 0.00 24 1008.8
20260504195024 21 241 0.0 3.2 0.00 0.00 0.00 23 1008.8
20260504194540 21 295 0.0 3.2 0.00 0.00 0.00 24 1008.8
20260504194024 21 273 0.0 4.8 0.00 0.00 0.00 23 1008.8
20260504193523 21 241 0.0 4.8 0.00 0.00 0.00 22 1008.7
20260504193053 21 294 1.6 4.8 0.00 0.00 0.00 21 1008.6
20260504192523 22 241 0.0 3.2 0.00 0.00 0.00 22 1008.5
20260504192023 22 262 0.0 8.0 0.00 0.00 0.00 22 1008.5
20260504191538 22 0 1.6 8.0 0.00 0.00 0.00 22 1008.3
20260504191024 23 0 0.0 3.2 0.00 0.00 0.00 22 1008.3
20260504190526 22 236 0.0 6.4 0.00 0.00 0.00 23 1008.4
20260504190041 21 299 0.0 6.4 0.00 0.00 0.00 23 1008.6
20260504185523 21 264 0.0 3.2 0.00 0.00 0.00 24 1008.6
20260504185026 21 0 0.0 4.8 0.00 0.00 0.00 24 1008.6
20260504184534 21 158 0.0 12.9 0.00 0.00 0.00 24 1008.6
20260504184024 21 283 1.6 12.9 0.00 0.00 0.00 23 1008.7
20260504183524 21 0 0.0 11.3 0.00 0.00 0.00 24 1008.7
20260504183054 21 310 1.6 9.7 0.00 0.00 0.00 24 1008.9
20260504182523 21 231 1.6 14.5 0.00 0.00 0.00 24 1008.9
20260504182021 21 309 1.6 14.5 0.00 0.00 0.00 24 1009.0
20260504181540 21 309 1.6 12.9 0.00 0.00 0.00 23 1008.9
20260504181024 21 279 3.2 12.9 0.00 0.00 0.00 24 1009.0
20260504180524 22 312 1.6 11.3 0.00 0.00 0.00 24 1009.3
20260504175524 21 262 1.6 8.0 0.00 0.00 0.00 25 1009.4
20260504175027 21 333 1.6 8.0 0.00 0.00 0.00 26 1009.4
20260504174538 21 323 1.6 11.3 0.00 0.00 0.00 26 1009.6
20260504174023 20 316 3.2 11.3 0.00 0.00 0.00 26 1009.7
20260504173526 20 293 1.6 9.7 0.00 0.00 0.00 27 1009.7
20260504173039 20 0 1.6 9.7 0.00 0.00 0.00 26 1009.8
20260504172523 20 348 1.6 6.4 0.00 0.00 0.00 26 1009.9
20260504172024 20 222 1.6 6.4 0.00 0.00 0.00 26 1009.9
20260504171541 20 252 1.6 6.4 0.00 0.00 0.00 26 1009.9
20260504171024 20 314 0.0 9.7 0.00 0.00 0.00 27 1010.1
20260504170523 19 0 1.6 8.0 0.00 0.00 0.00 27 1010.1
20260504151023 17 239 0.0 4.8 0.00 0.00 0.00 29 1010.3
20260504150523 17 251 0.0 4.8 0.00 0.00 0.00 29 1010.4
20260504141023 16 270 0.0 4.8 0.00 0.00 0.00 30 1010.6
20260504140523 15 0 0.0 4.8 0.00 0.00 0.00 30 1010.6
20260504130525 8 0 0.0 3.2 0.00 0.00 0.00 47 1010.4
20260504110523 6 0 0.0 0.0 0.00 0.00 0.00 53 1010.2
20260504100523 6 0 0.0 0.0 0.00 0.00 0.00 51 1010.7
20260504081541 7 0 0.0 0.0 0.00 0.00 0.00 46 1011.3
20260504081023 7 0 0.0 0.0 0.00 0.00 0.00 46 1011.5
20260504080524 7 0 0.0 0.0 0.00 0.00 0.00 45 1011.5
20260504050524 16 0 0.0 3.2 0.00 0.00 0.00 26 1011.9
20260504045524 16 0 0.0 3.2 0.00 0.00 0.00 26 1011.9
20260504045026 16 129 0.0 3.2 0.00 0.00 0.00 26 1011.9
20260504044539 16 0 0.0 3.2 0.00 0.00 0.00 26 1012.0
20260504044023 16 0 0.0 3.2 0.00 0.00 0.00 26 1012.0
20260504043533 16 0 0.0 3.2 0.00 0.00 0.00 26 1012.0
20260504043051 16 0 0.0 1.6 0.00 0.00 0.00 26 1012.0
20260504042524 16 0 0.0 1.6 0.00 0.00 0.00 26 1012.0
20260504042028 16 0 0.0 1.6 0.00 0.00 0.00 26 1012.0
20260504041539 16 0 0.0 3.2 0.00 0.00 0.00 27 1012.1
20260504041022 17 0 0.0 3.2 0.00 0.00 0.00 27 1012.2
20260504040523 17 0 0.0 3.2 0.00 0.00 0.00 26 1012.2